sat.trackr.live / text

‹ back to catalog

STARLINK-4581

NORAD 53576 · 2022-101BB

PAYLOAD ACTIVE UNKNOWN

§ Identity

Operator
Country
US
Launch date
2022-08-19
Launch site
AFETR
Launch vehicle
Mass (kg)
RCS (m²)

Purposes: comms

External: N2YO · Heavens-Above · Gunter

§ Orbital elements

Epoch: 2026-05-25T04:02:08.947968Z

Period
95.44 min
Inclination
53.2135°
Eccentricity
0.0001332
Mean motion
15.08844497 rev/d
Perigee alt
538.8 km
Apogee alt
540.7 km
Semi-major
6,917.9 km
B*
-6.4124e-6
RAAN
70.5932°
Arg perigee
92.0311°
Mean anomaly
268.0834°
Rev number
20,881

§ Raw data

STARLINK-45811 53576U 22101BB  26145.16815912 -.00000390  00000+0 -64124-5 0  99982 53576  53.2135  70.5932 0001332  92.0311 268.0834 15.08844497208818

JSON: /api/v1/satellites/53576 · /tle

For live sub-satellite position, see the globe view (requires WebGL).

§ Visibility from observer

Set your observer location to see the next 7 days of passes ≥ 10°. The values pass through the URL so the page stays shareable.

No JS? Fill the form by hand. The geolocation button needs JavaScript.